Location: Unspecified
(0.0000°N, 0.0000°E)
Time: 22:53:49
(UTC+00:00)

CUTE-I - Visible Passes

Search period start: 04 October 2023 00:00
Search period end: 14 October 2023 00:00
Orbit: 808 x 823 km, 98.7° (Epoch: 04 October)

Date Brightness Start Highest point End Pass type
(mag) Time Alt. Az. Time Alt. Az. Time Alt. Az.
04 Oct ? 05:03:51 10° NE 05:07:43 21° ESE 05:11:35 10° SSE visible
05 Oct ? 04:44:31 10° E 04:45:43 11° ESE 04:46:55 10° ESE visible
05 Oct ? 19:01:07 10° SW 19:04:17 16° WSW 19:07:27 10° WNW visible
06 Oct ? 18:37:41 10° SSW 18:42:16 29° WSW 18:46:50 10° NW visible
07 Oct ? 18:15:01 10° S 18:20:14 53° WSW 18:25:26 10° NNW visible
08 Oct ? 05:14:48 10° NE 05:19:17 28° ESE 05:23:46 10° SSE visible
09 Oct ? 04:54:14 10° ENE 04:57:16 15° ESE 05:00:18 10° SE visible
09 Oct ? 19:14:19 10° WSW 19:15:50 11° WSW 19:17:22 10° W visible
10 Oct ? 18:49:51 10° SSW 18:53:50 21° WSW 18:57:48 10° NW visible
11 Oct ? 18:26:51 10° S 18:31:48 38° WSW 18:36:44 10° NW visible
12 Oct ? 18:04:25 10° S 18:09:46 72° WSW 18:15:05 10° NNW visible
13 Oct ? 05:04:52 10° NE 05:08:48 21° ESE 05:12:45 10° SSE visible
